Location: Moscow
(55.7500°N, 37.5830°E)
Time: 05:06:10
(UTC+03:00)

Transit 4A - Pass Details

Date: 09 December 2021
Orbit: 863 x 981 km, 66.8° (Epoch: 26 January)

Event Time Altitude Azimuth Distance (km) Brightness Sun altitude
Rises 18:39:02 0° 199° (SSW) 3,467 11.3 -21.1°
Reaches altitude 10° 18:41:32 10° 194° (SSW) 2,545 10.5 -21.4°
Maximum altitude 18:47:11 50° 121° (ESE) 1,147 8.0 -22.2°
Enters shadow 18:48:06 46° 93° (E) 1,209 8.0 -22.3°
